Weather Roundup
Issued by NWS Chicago, IL

Home | Current Version | Previous Version | Graphics & Text | Print | Product List | Glossary On
Versions: 1 2 3 4 5 6 7 8 9 10 11 12 13 14 15 16 17 18 19 20 21 22 23 24 25 26 27 28 29 30 31 32 33 34 35 36 37 38 39 40 41 42 43 44 45 46 47 48 49 50
000
NZUS59 KLOT 310406
HRRLOT

CHICAGO AREA WEATHER ROUNDUP
NATIONAL WEATHER SERVICE CHICAGO/ROMEOVILLE IL
1000 PM CST FRI JAN 30 2015

NOTE: "FAIR" INDICATES FEW OR NO CLOUDS BELOW 12,000 FEET WITH NO
SIGNIFICANT WEATHER AND/OR OBSTRUCTIONS TO VISIBILITY.

* THESE STATIONS ARE NOT UNDER NWS QUALITY CONTROL. THEY ALSO MAY NOT
  REPORT WEATHER SUCH AS PRECIPITATION OR FOG.

ILZ005-006-012>014-019>023-310500-
NORTHEAST ILLINOIS

CITY           SKY/WX    TMP DP  RH WIND       PRES   REMARKS
OHARE          PTCLDY    21  13  71 SW3       30.37F
MIDWAY         CLEAR     24  14  65 SW5       30.39F WCI  18
AURORA         CLEAR     19  13  77 CALM      30.38F
LANSING*       CLEAR     19  13  79 S5        30.40F WCI  12
JOLIET*        CLEAR     17  14  91 CALM      30.39F
WAUKEGAN       CLEAR     19  12  74 SW6       30.35F WCI  11
DUPAGE AIRPORT CLEAR     16  11  80 S3        30.36F
WHEELING       CLEAR     21  12  68 SW3       30.39F
KANKAKEE*      CLEAR     23  20  89 S3        30.40F
MORRIS*        CLEAR     21  20  96 SE3       30.39F
LEWIS AIRPORT* CLEAR     19  13  78 S3        30.39S
NORTHERLY IS     N/A     26  15  63 SW2         N/A
$$

WIZ051-052-058>065-066-070>072-310500-
SOUTHEAST WISCONSIN

CITY           SKY/WX    TMP DP  RH WIND       PRES   REMARKS
MILWAUKEE      PTCLDY    21  10  62 SW10      30.34F WCI  10
KENOSHA*       PTCLDY    20  12  71 SW8       30.35F WCI  10
RACINE*        CLOUDY    21  11  65 SW7       30.36F WCI  12
BURLINGTON     CLEAR     12   9  87 SW3       30.34F
WAUKESHA       CLEAR     18  10  73 SW6       30.34S WCI   9
$$

INZ001>003-010>013-019-020-310500-
NORTHWEST INDIANA

CITY           SKY/WX    TMP DP  RH WIND       PRES   REMARKS
GARY*          CLEAR     19  14  82 CALM      30.40F
MICHIGAN CITY* NOT AVBL
RENSSELAER*    NOT AVBL
VALPARAISO     CLEAR     18  14  84 S3        30.39F
$$

LMZ740>746-310500-
SOUTHERN LAKE MICHIGAN

STATION/POSITION TIME  SKY/WX   TEMP WIND        PRES    VSBY
                                AIR  DIR/SP/G
                 (UTC)          (F)  (DEG/KT/KT) (MB)    (MI)
HARRISON CRIB    0400            26  250/  8/ 10   N/A
BURNHAM HARBOR   0400            26  220/  4/  6   N/A
CALUMET HARBOR   0400            25  200/  3/  4   N/A
BURNS HARBOR     NOT AVBL
MICHIGAN CITY    0400            23  150/  9/ 12   N/A
$$

ABBREVIATIONS USED IN REMARKS
   TC - TEMPERATURE IN CELSIUS
  WCI - WIND CHILL INDEX
   HX - HEAT INDEX
  VSB - VISIBILITY
$$



USA.gov is the U.S. government's official web portal to all federal, state and local government web resources and services.